Temperature
10 9 9 9 9 9 9 9 9 9 8 8 8 8 8 8 8 8 7 8 8 8 8 8 8 8 8 7 7 7 7 7 7 8 8 8 8 8 8 8 8 8 8
10 9 9 9 9 9 9 9 9 9 9 8 8 8 8 8 8 8 8 8 8 8 8 8 8 8 7 7 7 7 7 7 7 7 7 7 7 8 8 8 8 8 8
9 9 9 9 9 9 9 9 9 9 9 8 8 8 8 8 8 8 8 8 7 7 7 8 8 8 7 7 7 6 6 6 6 7 7 7 7 7 7 7 7 7 8
10 10 9 9 9 9 9 9 9 9 8 8 8 8 8 8 8 8 8 7 7 7 7 7 7 7 7 7 6 6 6 6 6 6 6 6 6 6 6 6 6 7 7
10 10 9 9 9 9 9 9 9 9 8 8 8 8 8 8 8 8 8 7 7 7 7 7 7 7 7 6 6 6 6 6 5 5 5 5 5 5 5 5 6 6 6
10 10 10 9 9 9 9 9 9 8 8 8 8 8 9 8 8 8 7 7 7 6 6 6 6 6 6 6 6 6 5 5 5 5 5 4 4 4 4 4 5 5 5
10 10 9 9 9 9 9 9 9 8 8 8 8 8 8 8 8 7 7 7 6 6 6 6 5 5 5 5 5 5 5 5 4 4 4 4 4 4 4 4 4 4 4
10 10 10 9 9 9 9 9 9 8 8 8 7 7 7 7 7 7 7 7 6 6 6 5 5 5 5 5 5 5 5 4 4 4 3 3 3 3 3 3 3 4 4
10 10 10 10 9 9 9 9 9 8 8 7 7 7 6 6 7 7 6 6 6 5 5 5 5 5 5 5 5 5 5 4 4 3 3 3 3 3 3 3 3 3 3
10 10 10 10 9 9 9 9 9 8 8 7 7 6 6 5 5 5 6 6 5 5 5 5 5 5 4 4 4 4 4 4 3 3 3 2 2 2 2 2 2 2 3
10 10 10 10 9 9 9 9 8 8 8 7 7 6 6 5 5 4 4 5 5 5 5 5 5 4 4 4 3 3 3 3 3 3 2 2 2 1 1 1 1 2 2
10 10 10 10 9 9 9 9 8 8 8 7 7 6 6 5 5 4 3 4 4 5 5 5 4 4 3 3 2 2 2 2 2 2 2 2 2 2 1 1 1 1 1
10 10 10 9 9 9 9 9 8 8 7 7 6 6 5 5 4 4 3 3 3 4 4 4 4 3 2 2 2 1 1 1 1 1 1 1 1 1 1 1 0 0 0
11 10 10 9 9 9 9 8 8 7 7 7 6 6 5 5 4 4 3 2 2 2 3 3 3 2 2 1 1 1 0 0 -0 -1 -1 -1 -1 -1 -1 -1 -1 -1 -1
10 10 10 9 9 9 8 8 7 7 7 6 6 5 5 5 4 4 3 2 1 0 1 2 2 2 1 1 0 -0 -0 -0 -1 -1 -1 -2 -2 -2 -2 -2 -2 -2 -2
10 10 9 9 9 8 8 8 7 7 6 6 5 5 5 4 4 3 3 2 1 1 -0 1 1 1 0 -0 -0 -1 -1 -1 -1 -1 -2 -2 -3 -3 -3 -3 -3 -3 -3
10 10 9 9 9 8 8 7 7 6 6 5 5 5 4 4 3 3 2 2 1 0 -0 0 0 -0 -1 -1 -1 -1 -1 -2 -2 -2 -2 -3 -3 -3 -3 -3 -3 -3 -3
10 9 9 9 8 8 7 7 6 6 6 5 5 4 4 3 3 3 2 2 1 0 -1 -1 -1 -1 -1 -2 -2 -2 -2 -3 -3 -3 -3 -3 -3 -3 -3 -4 -3 -3 -3
10 9 9 8 8 7 7 6 6 6 5 5 4 4 4 3 3 2 2 1 1 -0 -1 -1 -1 -2 -2 -2 -3 -3 -4 -4 -4 -4 -4 -4 -4 -4 -4 -4 -4 -4 -4
9 9 8 8 7 7 7 6 6 5 5 4 4 4 3 3 2 2 1 1 0 -1 -1 -2 -2 -2 -3 -3 -4 -4 -4 -4 -4 -4 -4 -4 -4 -4 -4 -4 -4 -4 -4
9 8 8 7 7 7 6 6 5 5 4 4 4 3 3 2 2 1 1 0 -1 -1 -2 -2 -3 -3 -4 -4 -4 -5 -5 -5 -5 -5 -5 -5 -5 -5 -4 -5 -5 -5 -5
8 8 7 7 7 6 6 5 5 4 4 3 3 3 2 2 1 1 0 -1 -1 -2 -2 -3 -3 -4 -4 -4 -5 -5 -5 -5 -5 -5 -5 -5 -5 -5 -5 -5 -5 -5 -5
8 7 7 6 6 6 5 5 4 4 3 3 3 2 2 1 1 0 -1 -1 -2 -2 -3 -3 -4 -4 -4 -5 -5 -5 -5 -5 -6 -5 -6 -6 -5 -5 -5 -5 -5 -5 -5
7 7 6 6 5 5 5 4 4 3 3 2 2 2 1 1 0 -1 -1 -2 -2 -2 -3 -4 -4 -4 -5 -5 -5 -5 -5 -5 -5 -5 -6 -6 -6 -6 -6 -6 -6 -6 -5
7 6 6 5 5 5 4 4 3 2 2 2 1 1 0 -0 -1 -2 -2 -2 -3 -3 -3 -4 -4 -5 -5 -5 -5 -5 -5 -6 -6 -6 -6 -7 -6 -7 -7 -6 -6 -6 -6
6 6 5 5 4 4 4 3 2 2 1 1 1 0 -0 -1 -2 -2 -3 -3 -3 -3 -4 -4 -5 -5 -5 -5 -5 -6 -6 -6 -7 -7 -7 -7 -7 -8 -8 -7 -6 -6 -6
Wind_Speed
5 6 6 6 6 5 4 4 4 3 2 2 4 5 5 6 6 6 2 4 3 3 6 8 9 10 10 10 10 10 11 11 12 12 12 12 13 13 13 13 13 13 14
8 6 4 5 5 4 4 3 2 1 1 2 3 5 5 6 6 7 5 3 3 3 4 6 8 8 9 9 10 11 11 12 12 13 13 13 14 14 14 14 14 15 15
9 7 4 3 5 5 4 2 2 1 2 2 3 4 4 6 6 6 6 4 2 2 1 3 5 7 8 9 10 11 11 12 13 13 14 14 14 14 15 15 16 16 16
11 8 4 4 5 5 3 1 1 0 1 2 2 3 3 5 5 4 5 4 1 2 2 0 2 5 7 9 10 11 12 13 13 14 14 15 15 15 16 16 17 17 17
12 9 5 5 6 4 2 1 1 0 1 2 3 4 3 3 2 3 3 1 2 1 2 3 2 4 6 8 10 12 13 13 14 15 15 16 16 16 17 17 17 18 19
12 10 6 5 6 3 2 1 1 1 0 1 3 5 5 3 2 1 1 2 1 1 1 1 2 4 6 9 11 13 13 14 15 15 16 17 17 17 18 18 18 19 19
12 8 5 4 4 3 3 3 2 0 0 1 2 4 4 3 2 1 0 1 1 1 2 3 4 4 5 9 11 13 14 15 15 16 17 17 18 18 19 19 20 20 20
12 9 6 4 4 3 3 3 2 1 0 1 1 2 4 4 2 1 1 0 1 2 3 5 6 6 7 8 9 12 13 15 16 17 17 18 19 20 20 20 21 21 22
12 10 8 6 5 4 4 3 3 3 1 0 2 2 1 2 3 4 2 1 1 2 2 5 6 7 8 8 8 9 12 14 16 18 19 19 20 21 21 21 22 22 23
11 11 9 8 5 4 5 4 3 2 3 1 0 1 1 2 0 4 4 3 3 3 4 4 5 7 8 8 8 10 12 14 17 19 20 21 21 22 22 23 23 23 24
9 11 10 8 6 4 5 5 4 3 2 2 1 1 0 0 1 2 4 5 4 4 4 4 5 7 7 7 8 10 13 15 18 20 21 22 22 23 23 24 24 24 24
6 8 9 8 6 5 6 5 4 4 2 2 1 2 2 2 2 2 4 4 5 5 5 5 4 6 7 7 8 11 14 17 20 21 22 23 23 24 24 25 25 25 25
6 8 7 6 6 6 6 5 4 4 3 3 2 2 2 2 2 2 3 4 4 4 4 4 3 5 6 6 8 11 15 18 21 22 23 24 24 25 25 26 26 26 26
8 9 8 8 8 8 7 5 4 4 3 4 3 3 2 2 2 2 3 3 4 4 3 5 4 4 6 8 11 14 14 18 21 22 24 25 25 25 25 26 26 26 26
8 10 9 8 8 8 7 6 4 4 4 4 4 4 3 3 3 3 3 3 3 5 5 5 3 3 8 12 14 14 13 18 22 24 25 25 25 25 25 26 26 27 27
10 11 10 9 8 7 7 6 5 4 5 4 4 4 4 4 4 4 4 4 5 6 7 4 4 6 9 12 16 15 15 21 23 24 26 26 26 26 26 26 27 27 27
11 11 10 10 9 8 7 6 6 6 6 5 4 5 6 5 4 4 4 5 6 6 10 9 6 6 6 7 10 13 16 17 18 23 26 26 27 27 27 27 27 28 28
11 10 10 9 9 8 7 7 7 6 6 6 6 6 7 5 6 6 5 7 7 7 8 12 7 5 7 7 7 8 12 16 17 22 25 26 27 27 27 28 28 28 28
11 10 10 10 9 8 7 7 6 6 6 6 6 6 7 7 7 6 7 7 7 7 7 8 9 6 6 7 8 9 10 10 15 19 22 24 25 27 28 28 28 28 28
11 10 9 9 8 8 7 6 5 5 5 5 6 7 7 8 8 8 8 8 7 7 7 8 9 7 7 7 7 8 9 6 9 13 19 22 24 26 27 28 29 29 28
10 9 9 8 8 7 7 7 6 6 6 6 7 7 8 11 13 12 9 8 7 7 7 8 10 9 8 7 7 7 10 9 8 8 9 10 11 11 16 23 26 27 28
9 9 9 8 8 7 10 12 9 6 7 7 8 8 9 11 15 19 21 19 15 10 9 9 10 11 11 9 8 9 9 10 9 4 6 8 7 9 9 14 23 27 27
9 8 8 8 8 8 11 12 13 8 7 8 8 8 9 9 13 9 14 18 17 20 19 13 11 12 12 10 10 11 10 11 13 7 8 11 8 10 10 17 24 26 27
8 8 7 8 7 8 11 12 13 8 7 8 9 9 9 10 9 10 8 8 9 10 13 10 10 12 12 11 11 12 13 12 10 7 6 10 9 8 10 10 22 25 24
6 6 7 7 7 7 11 12 11 6 7 9 9 9 10 9 16 18 11 9 9 9 15 20 22 21 24 24 19 10 8 10 12 7 4 5 6 7 7 8 14 19 20
6 6 5 6 7 7 10 12 12 5 7 7 7 8 13 14 17 19 10 9 10 10 9 11 13 16 14 16 20 11 7 9 10 7 3 3 5 5 6 5 5 7 12
Wind_Direction
171 181 189 184 191 200 201 221 249 271 291 323 326 319 315 317 315 319 274 216 232 300 316 321 322 324 326 330 335 339 339 337 334 334 334 332 329 326 322 318 312 305 301
178 182 185 178 192 199 211 231 265 290 320 324 307 301 301 311 318 323 317 266 235 260 308 326 329 329 333 338 339 340 340 339 337 335 333 330 327 324 320 317 315 312 308
178 178 180 182 192 194 201 221 294 327 318 309 301 307 319 318 315 318 329 324 271 205 243 334 339 340 341 339 337 336 336 333 330 327 325 323 322 320 316 314 313 310 308
180 177 177 187 184 175 178 177 198 309 305 309 315 315 308 301 299 314 316 314 18 123 154 174 341 339 339 338 336 334 332 329 325 322 320 319 318 315 312 311 310 308 306
182 177 181 182 170 164 165 163 143 127 335 329 313 299 290 289 297 310 308 328 87 107 158 182 236 296 323 331 332 331 329 327 324 322 319 317 315 312 310 308 307 305 304
182 178 173 171 161 150 154 158 162 154 178 328 317 301 282 258 252 262 319 4 83 176 220 238 266 294 310 320 326 327 327 326 324 322 320 318 315 312 309 307 304 303 301
176 170 158 157 145 151 160 148 132 105 9 38 353 317 304 262 180 151 52 9 355 6 344 336 332 334 333 325 324 323 324 325 325 323 321 319 316 313 310 308 306 303 301
168 166 158 154 146 143 136 131 127 118 92 92 87 352 341 340 354 335 343 341 1 4 337 330 334 340 337 328 325 324 324 324 324 324 322 321 318 315 312 310 307 304 302
162 162 161 149 144 146 150 144 137 141 147 119 113 118 86 300 321 313 301 321 349 341 317 320 325 330 329 325 325 324 321 322 323 323 322 321 318 314 312 310 308 306 304
157 157 153 146 143 143 144 146 138 138 134 156 116 124 168 166 149 313 315 322 342 325 308 311 313 310 312 314 316 317 317 320 321 321 320 318 316 314 312 311 309 307 306
150 152 150 145 145 145 143 138 134 137 143 154 147 130 296 356 210 218 283 304 317 303 310 303 295 291 293 298 304 308 314 318 318 317 317 316 315 313 312 310 309 307 305
153 153 150 148 146 141 140 141 142 144 147 147 158 169 174 192 226 228 258 288 295 290 297 282 278 274 275 279 288 303 311 314 313 314 313 313 313 312 310 309 308 306 303
161 162 152 152 148 143 142 141 148 159 166 172 192 205 201 210 212 221 254 279 290 294 290 282 271 284 287 289 292 299 304 306 307 309 309 310 309 308 307 306 305 304 303
163 157 156 155 151 149 149 151 159 173 174 185 203 204 209 232 224 217 223 257 297 295 282 278 298 291 314 313 301 297 294 302 305 307 308 307 306 305 304 303 303 302 301
155 155 157 156 153 153 157 159 173 183 182 194 203 211 217 228 226 226 221 207 222 274 287 275 283 303 315 305 302 304 301 306 309 310 309 307 306 304 303 302 301 300 299
153 155 158 158 158 160 164 168 176 185 187 198 198 211 229 231 231 227 224 226 219 235 264 263 270 289 298 302 306 315 313 311 310 307 306 306 305 305 305 303 301 300 298
155 159 160 160 163 168 171 175 184 187 196 208 210 216 231 231 232 234 232 233 236 235 263 274 267 279 290 297 307 308 307 304 302 305 304 304 305 305 304 303 301 300 298
158 160 159 161 167 172 176 181 192 193 199 214 222 225 236 237 238 237 237 240 242 240 254 275 280 279 281 287 289 291 300 300 298 300 302 303 304 304 305 304 302 301 300
158 158 160 166 171 174 179 187 192 197 206 216 221 227 237 239 247 246 244 247 249 255 254 271 283 280 282 286 290 289 286 286 292 297 300 301 302 303 303 304 304 304 302
160 163 165 168 171 174 180 187 193 201 216 228 233 235 239 240 246 249 253 252 254 261 266 273 281 284 282 280 282 288 291 277 284 292 292 293 295 299 301 302 302 302 301
161 161 162 167 170 175 186 189 195 206 222 239 246 245 246 247 251 255 257 251 248 256 264 271 278 284 283 284 281 283 290 289 277 276 278 281 288 287 291 295 297 296 295
158 160 168 172 179 189 197 201 200 207 219 231 244 249 251 254 259 265 268 268 262 259 260 265 275 278 280 278 282 284 289 294 292 262 270 283 283 285 286 287 290 294 296
163 169 175 179 189 199 204 213 217 214 223 234 242 250 261 260 266 258 267 271 271 271 270 270 272 273 279 279 279 281 278 280 285 281 288 289 281 283 285 290 295 297 299
170 175 182 186 193 206 212 222 227 225 232 242 246 250 256 260 259 265 257 256 253 259 265 270 266 269 271 271 266 273 278 281 279 273 270 286 290 284 290 289 294 296 300
171 176 180 186 199 216 221 226 230 223 236 247 251 254 259 262 273 279 275 267 266 263 273 276 277 279 282 288 290 290 287 291 293 287 256 268 286 293 289 285 290 300 308
169 172 184 196 207 221 229 231 233 223 240 251 254 255 265 273 280 282 275 268 272 273 270 275 276 279 282 284 288 283 277 283 289 290 261 276 294 311 299 277 289 309 309
Height
1544 1546 1547 1548 1549 1549 1550 1550 1550 1551 1551 1550 1550 1549 1549 1548 1548 1547 1545 1544 1543 1541 1540 1539 1538 1537 1537 1536 1536 1535 1534 1534 1533 1532 1532 1531 1530 1530 1529 1529 1528 1528 1527
1543 1544 1546 1547 1547 1548 1549 1549 1549 1549 1549 1549 1548 1547 1547 1546 1545 1545 1543 1542 1540 1539 1538 1537 1536 1535 1534 1534 1533 1532 1531 1530 1530 1529 1528 1527 1526 1526 1525 1525 1525 1524 1524
1541 1542 1544 1545 1546 1546 1547 1547 1547 1547 1547 1546 1546 1545 1544 1544 1543 1542 1541 1539 1538 1536 1535 1535 1534 1533 1532 1531 1530 1529 1528 1527 1526 1525 1524 1524 1523 1522 1521 1521 1520 1520 1519
1538 1540 1541 1543 1544 1544 1545 1545 1545 1545 1544 1544 1543 1542 1542 1540 1539 1539 1538 1537 1536 1535 1533 1533 1532 1531 1530 1529 1528 1527 1525 1524 1523 1522 1521 1520 1519 1518 1517 1516 1515 1515 1514
1535 1537 1539 1540 1541 1542 1542 1543 1543 1543 1542 1541 1540 1539 1538 1537 1537 1536 1536 1535 1534 1533 1532 1531 1530 1529 1528 1526 1525 1524 1522 1521 1519 1518 1517 1516 1515 1513 1513 1512 1511 1510 1509
1532 1534 1536 1538 1539 1539 1540 1540 1540 1540 1540 1539 1538 1537 1536 1535 1535 1534 1534 1533 1532 1531 1530 1529 1528 1526 1525 1524 1522 1521 1519 1517 1516 1514 1513 1511 1510 1509 1508 1507 1506 1505 1504
1529 1531 1533 1535 1536 1537 1537 1538 1538 1538 1537 1536 1535 1534 1533 1533 1533 1532 1532 1531 1531 1530 1529 1528 1526 1524 1523 1521 1519 1517 1515 1514 1512 1510 1509 1507 1506 1504 1503 1502 1501 1500 1499
1525 1528 1530 1531 1533 1534 1534 1535 1535 1535 1535 1534 1534 1532 1531 1532 1531 1531 1530 1529 1528 1528 1527 1525 1524 1522 1520 1518 1516 1514 1512 1510 1508 1506 1504 1503 1501 1499 1498 1497 1495 1494 1493
1522 1524 1527 1528 1529 1530 1531 1532 1532 1532 1532 1532 1532 1532 1531 1530 1529 1528 1528 1527 1526 1525 1524 1522 1521 1519 1517 1514 1512 1510 1508 1506 1504 1502 1500 1498 1496 1494 1493 1491 1490 1488 1487
1518 1521 1523 1525 1526 1527 1528 1529 1530 1530 1530 1530 1530 1530 1530 1529 1528 1526 1525 1524 1523 1522 1520 1519 1517 1515 1513 1511 1509 1507 1504 1502 1500 1497 1495 1493 1490 1488 1487 1485 1483 1481 1480
1514 1517 1519 1521 1523 1524 1525 1526 1527 1527 1527 1527 1527 1527 1527 1526 1526 1524 1521 1520 1519 1518 1517 1515 1513 1511 1509 1507 1505 1503 1500 1498 1495 1493 1490 1487 1485 1482 1480 1478 1476 1474 1472
1510 1513 1515 1518 1519 1521 1522 1523 1524 1524 1525 1525 1524 1524 1524 1523 1522 1521 1519 1516 1514 1513 1512 1510 1509 1507 1505 1502 1500 1498 1496 1494 1491 1488 1485 1482 1479 1476 1474 1471 1469 1467 1465
1505 1508 1511 1514 1516 1517 1519 1520 1521 1521 1521 1521 1521 1521 1521 1520 1519 1518 1516 1513 1510 1508 1506 1505 1504 1503 1501 1498 1496 1494 1491 1488 1485 1482 1479 1476 1473 1470 1467 1465 1462 1460 1458
1501 1505 1508 1510 1512 1514 1515 1516 1517 1518 1518 1518 1518 1518 1517 1516 1516 1514 1513 1511 1506 1503 1501 1500 1499 1498 1496 1494 1492 1489 1486 1483 1480 1477 1474 1470 1467 1464 1461 1458 1455 1453 1450
1498 1501 1504 1506 1508 1510 1512 1513 1513 1514 1514 1514 1514 1514 1513 1512 1511 1510 1509 1507 1506 1500 1495 1494 1494 1493 1491 1489 1486 1483 1480 1477 1474 1471 1467 1464 1461 1457 1454 1451 1448 1446 1443
1494 1497 1500 1502 1504 1506 1508 1509 1510 1510 1510 1510 1510 1510 1509 1508 1507 1506 1504 1503 1501 1498 1492 1489 1488 1487 1485 1483 1481 1478 1474 1471 1468 1464 1461 1457 1454 1451 1448 1445 1442 1439 1436
1490 1493 1496 1498 1500 1502 1504 1505 1505 1506 1506 1506 1506 1505 1504 1503 1502 1501 1499 1498 1496 1493 1487 1483 1483 1481 1479 1476 1474 1471 1468 1464 1461 1458 1454 1451 1448 1445 1442 1438 1435 1432 1429
1487 1489 1492 1494 1496 1498 1499 1500 1501 1501 1502 1501 1501 1500 1499 1498 1497 1496 1494 1492 1490 1487 1484 1477 1475 1474 1472 1470 1467 1464 1461 1458 1455 1451 1448 1445 1442 1439 1435 1432 1429 1425 1422
1482 1485 1488 1490 1492 1494 1495 1496 1497 1497 1497 1496 1496 1495 1494 1493 1491 1490 1488 1486 1484 1481 1478 1474 1469 1468 1465 1463 1460 1456 1454 1451 1448 1445 1442 1439 1436 1432 1429 1426 1422 1418 1415
1478 1481 1483 1486 1488 1489 1491 1491 1492 1492 1492 1491 1491 1490 1489 1487 1486 1484 1482 1479 1477 1475 1472 1468 1463 1460 1458 1456 1454 1450 1446 1444 1441 1439 1435 1432 1429 1426 1423 1419 1415 1411 1408
1474 1476 1479 1481 1483 1485 1486 1487 1487 1486 1486 1486 1485 1484 1483 1481 1479 1477 1475 1473 1471 1468 1465 1461 1457 1454 1451 1449 1447 1444 1440 1436 1433 1432 1427 1424 1422 1418 1414 1411 1407 1403 1400
1469 1472 1474 1477 1478 1480 1481 1481 1481 1481 1480 1479 1478 1477 1476 1474 1472 1470 1468 1466 1465 1462 1458 1455 1451 1448 1444 1443 1441 1438 1434 1429 1424 1423 1420 1416 1415 1410 1407 1403 1400 1397 1394
1465 1467 1470 1472 1473 1475 1476 1476 1475 1475 1474 1473 1472 1470 1468 1467 1465 1463 1461 1459 1457 1455 1452 1450 1445 1441 1439 1437 1434 1430 1427 1423 1419 1416 1414 1407 1406 1402 1399 1396 1393 1390 1387
1460 1463 1465 1467 1469 1470 1470 1470 1470 1469 1467 1466 1465 1463 1461 1459 1458 1456 1453 1450 1447 1446 1444 1442 1438 1435 1432 1430 1428 1424 1420 1416 1411 1410 1408 1402 1397 1394 1391 1389 1386 1383 1381
1456 1458 1461 1462 1463 1464 1465 1465 1464 1462 1460 1459 1458 1456 1454 1452 1450 1448 1445 1442 1439 1437 1436 1433 1431 1428 1426 1424 1422 1418 1413 1410 1404 1401 1401 1397 1391 1388 1384 1381 1379 1377 1375
1452 1454 1456 1457 1458 1459 1459 1459 1457 1455 1453 1451 1450 1448 1447 1444 1442 1440 1438 1434 1430 1428 1426 1424 1422 1420 1418 1415 1414 1411 1408 1404 1399 1395 1393 1391 1387 1384 1377 1374 1374 1372 1369